DW4212 La Cabrera ES current weather conditions

sailwx.info

Wind from 355

Air temperature 16.1° C
Dewpoint 10.6° C

Last reported at 2014-Jul-29 01:49 UTC.
Time now 2014-Jul-29 02:45 UTC

Location: N 40°53' W 003°35'.
View on Google Maps.

See reports from other nearby stations

  
Tides and Currents Weather Stations Pressure Air Temp Water Temp Dewpoint Dewpoint Depression Visibility Wind Speed Wind Dir Waves Ship Positions
date/time (UTC)wind fromknots sea level pressurealtimeterstation pressurevisibilityair tempwater tempwave heightnotes
2014-Jul-29 01:49 355 16.1
2014-Jul-29 01:39 355 16.7
2014-Jul-29 01:19 355 17.2
2014-Jul-29 01:09 355 17.2
2014-Jul-29 00:59 355 17.2
2014-Jul-29 00:49 058 1 gusting 6 17.8
2014-Jul-29 00:39 074 1 gusting 6 17.8
2014-Jul-29 00:29 067 0 gusting 5 17.8
2014-Jul-29 00:19 052 0 gusting 6 18.3
2014-Jul-29 00:09 360 0 gusting 2 18.3
2014-Jul-28 23:59 014 1 gusting 6 18.3
2014-Jul-28 23:49 360 2 gusting 6 18.9
2014-Jul-28 23:39 005 1 gusting 7 18.9
2014-Jul-28 23:29 290 4 gusting 9 18.9
2014-Jul-28 23:19 341 4 gusting 8 18.9
2014-Jul-28 23:09 344 2 gusting 6 18.9
2014-Jul-28 22:59 340 2 gusting 6 19.4
2014-Jul-28 22:49 351 1 gusting 5 19.4
2014-Jul-28 22:39 350 2 gusting 7 19.4
2014-Jul-28 22:29 005 3 gusting 6 19.4
2014-Jul-28 22:19 344 0 gusting 5 20.0
2014-Jul-28 22:09 355 20.0
2014-Jul-28 21:59 315 2 gusting 6 20.0
2014-Jul-28 21:49 005 1 gusting 6 20.6
2014-Jul-28 21:39 345 0 gusting 4 20.6
2014-Jul-28 21:29 355 0 gusting 3 20.6
2014-Jul-28 21:19 005 21.1
2014-Jul-28 21:09 005 21.1
2014-Jul-28 20:59 005 21.1
2014-Jul-28 20:49 005 21.1
2014-Jul-28 20:39 005 21.7
2014-Jul-28 20:29 052 21.7
2014-Jul-28 20:19 029 0 gusting 4 21.7
2014-Jul-28 20:09 066 0 gusting 5 22.2
2014-Jul-28 19:59 351 1 gusting 6 22.2
2014-Jul-28 19:49 360 1 gusting 9 22.8
2014-Jul-28 19:39 355 2 gusting 6 23.3
2014-Jul-28 19:29 350 2 gusting 7 23.9
2014-Jul-28 19:19 011 0 gusting 4 23.9
2014-Jul-28 19:09 063 24.4
2014-Jul-28 18:59 094 1 gusting 9 24.4
2014-Jul-28 18:49 346 3 gusting 9 25.0
2014-Jul-28 18:39 030 2 gusting 14 25.6
2014-Jul-28 18:29 012 2 gusting 11 26.1
2014-Jul-28 18:19 022 1 gusting 9 26.7
2014-Jul-28 18:09 355 3 gusting 10 27.8
2014-Jul-28 17:59 336 1 gusting 7 28.3
2014-Jul-28 17:49 360 4 gusting 10 28.9
2014-Jul-28 17:39 327 2 gusting 8 29.4
2014-Jul-28 17:29 336 1 gusting 6 29.4
2014-Jul-28 17:19 334 0 gusting 7 29.4
2014-Jul-28 17:09 355 3 gusting 10 30.0
2014-Jul-28 16:59 018 2 gusting 8 30.6
2014-Jul-28 16:49 348 1 gusting 8 30.6
2014-Jul-28 16:39 360 4 gusting 9 30.6
2014-Jul-28 16:29 263 3 gusting 6 31.1
2014-Jul-28 16:19 029 5 gusting 10 31.1
2014-Jul-28 16:09 275 2 gusting 7 31.7
2014-Jul-28 15:59 286 1 gusting 8 31.7
2014-Jul-28 15:49 306 1 gusting 8 31.7
2014-Jul-28 15:39 297 2 gusting 6 31.7
2014-Jul-28 15:29 329 2 gusting 6 32.2
2014-Jul-28 15:19 315 0 gusting 6 31.7
2014-Jul-28 15:09 340 2 gusting 7 31.7
2014-Jul-28 14:59 360 4 gusting 10 31.1
2014-Jul-28 14:49 346 2 gusting 10 31.1
2014-Jul-28 14:39 306 4 gusting 8 31.1
2014-Jul-28 14:29 355 3 gusting 8 31.1
2014-Jul-28 14:19 251 2 gusting 9 31.1
2014-Jul-28 14:09 280 3 gusting 11 31.1
2014-Jul-28 13:59 325 4 gusting 13 31.7
2014-Jul-28 13:49 326 2 gusting 12 31.7
2014-Jul-28 13:39 334 4 gusting 11 31.7
2014-Jul-28 13:29 316 2 gusting 19 31.7
2014-Jul-28 13:19 325 3 gusting 8 32.2
2014-Jul-28 13:09 341 3 gusting 10 32.2
2014-Jul-28 12:59 014 5 gusting 9 32.2
2014-Jul-28 12:49 342 3 gusting 10 32.2
2014-Jul-28 12:39 355 2 gusting 8 32.2
2014-Jul-28 12:29 331 4 gusting 11 31.7
2014-Jul-28 12:19 328 2 gusting 8 31.7
2014-Jul-28 12:09 341 2 gusting 8 30.6
2014-Jul-28 11:59 355 4 gusting 10 30.6
2014-Jul-28 11:39 277 3 gusting 6 31.1
2014-Jul-28 11:29 300 1 gusting 7 31.1
2014-Jul-28 11:19 244 1 gusting 6 30.6
2014-Jul-28 11:09 235 1 gusting 6 31.1
2014-Jul-28 10:59 207 1 gusting 6 31.1
2014-Jul-28 10:49 180 0 gusting 6 30.6
2014-Jul-28 10:39 176 30.0
2014-Jul-28 10:29 172 0 gusting 6 30.0
2014-Jul-28 10:19 213 2 gusting 6 30.0
2014-Jul-28 10:09 192 30.0
2014-Jul-28 09:59 199 1 gusting 6 29.4
2014-Jul-28 09:49 188 0 gusting 5 30.0
2014-Jul-28 09:39 250 0 gusting 4 29.4
2014-Jul-28 09:29 171 0 gusting 5 28.9
2014-Jul-28 09:19 205 28.3
2014-Jul-28 09:09 251 1 gusting 5 27.8
2014-Jul-28 08:59 188 27.2
2014-Jul-28 08:49 140 0 gusting 5 27.2
2014-Jul-28 08:39 163 26.1
2014-Jul-28 08:29 095 25.6
2014-Jul-28 08:19 094 25.6
2014-Jul-28 08:09 095 25.0
2014-Jul-28 07:59 095 24.4
2014-Jul-28 07:49 355 24.4
2014-Jul-28 07:40 355 23.9
2014-Jul-28 07:29 355 23.3
2014-Jul-28 07:19 355 22.8
2014-Jul-28 07:09 355 21.7
2014-Jul-28 06:59 355 21.1
2014-Jul-28 06:49 355 21.1
2014-Jul-28 06:39 355 21.1
2014-Jul-28 06:29 355 20.0
2014-Jul-28 06:19 355 19.4
2014-Jul-28 06:09 355 18.9
2014-Jul-28 05:59 355 18.3
2014-Jul-28 05:49 355 18.3
2014-Jul-28 05:39 355 18.3
2014-Jul-28 05:29 355 18.3
2014-Jul-28 05:19 355 18.3
2014-Jul-28 05:09 355 18.3
2014-Jul-28 04:59 355 18.3
2014-Jul-28 04:49 355 18.3
2014-Jul-28 04:39 355 18.3
2014-Jul-28 04:29 355 18.3
2014-Jul-28 04:19 355 18.3
2014-Jul-28 04:09 355 18.3
2014-Jul-28 03:59 355 18.9
2014-Jul-28 03:49 355 18.9
2014-Jul-28 03:39 355 18.9
2014-Jul-28 03:29 355 18.9
2014-Jul-28 03:19 355 19.4
2014-Jul-28 03:09 355 19.4
2014-Jul-28 02:59 355 19.4
2014-Jul-28 02:49 355 20.0
2014-Jul-28 02:39 355 20.0
2014-Jul-28 02:29 355 20.6
2014-Jul-28 02:19 355 20.6
2014-Jul-28 02:09 355 20.6
2014-Jul-28 01:59 355 20.6
2014-Jul-28 01:49 355 20.6
2014-Jul-28 01:39 355 21.1
2014-Jul-28 01:29 355 21.1
2014-Jul-28 01:19 355 21.7
2014-Jul-28 01:09 355 22.2
2014-Jul-28 00:59 355 22.2
2014-Jul-28 00:49 355 22.2
2014-Jul-28 00:40 355 22.2
2014-Jul-28 00:29 355 0 gusting 3 22.2
2014-Jul-28 00:19 355 0 gusting 3 22.2
2014-Jul-28 00:09 017 22.2
2014-Jul-27 23:59 017 0 gusting 2 22.2
2014-Jul-27 23:49 017 22.2
2014-Jul-27 23:39 017 23.3
2014-Jul-27 23:29 017 0 gusting 2 23.3
2014-Jul-27 23:19 018 0 gusting 2 23.3
2014-Jul-27 23:09 018 23.9
2014-Jul-27 22:59 018 23.9
2014-Jul-27 22:49 018 24.4
2014-Jul-27 22:39 018 24.4
2014-Jul-27 22:29 005 0 gusting 4 24.4
2014-Jul-27 22:19 331 24.4
2014-Jul-27 22:10 355 25.0
2014-Jul-27 21:59 355 25.0
2014-Jul-27 21:49 355 0 gusting 3 25.6
2014-Jul-27 21:39 355 0 gusting 3 25.6
2014-Jul-27 21:29 355 0 gusting 4 26.1
2014-Jul-27 21:19 355 1 gusting 4 26.1
2014-Jul-27 20:59 324 2 gusting 6 26.1
2014-Jul-27 20:49 333 0 gusting 6 26.7
2014-Jul-27 20:39 355 0 gusting 6 26.7
2014-Jul-27 20:19 269 27.8
2014-Jul-27 20:09 323 27.8
2014-Jul-27 19:59 318 0 gusting 4 28.3
2014-Jul-27 19:49 318 0 gusting 4 29.4
2014-Jul-27 19:39 345 29.4
2014-Jul-27 19:29 281 29.4
2014-Jul-27 19:19 323 30.0
2014-Jul-27 19:09 281 30.0
2014-Jul-27 18:59 258 0 gusting 6 30.6
2014-Jul-27 18:49 269 31.1
2014-Jul-27 18:39 249 0 gusting 5 31.7
2014-Jul-27 18:29 240 0 gusting 5 31.7
2014-Jul-27 18:19 259 32.2
2014-Jul-27 18:09 259 32.2
2014-Jul-27 17:59 265 31.7
2014-Jul-27 17:49 336 31.7
2014-Jul-27 17:39 336 31.7
2014-Jul-27 17:29 355 31.7
2014-Jul-27 17:19 342 32.2
2014-Jul-27 17:09 342 32.8
2014-Jul-27 16:59 343 33.3
2014-Jul-27 16:49 279 0 gusting 6 33.3
2014-Jul-27 16:39 269 0 gusting 5 33.3
2014-Jul-27 16:29 218 0 gusting 4 33.3
2014-Jul-27 16:19 225 0 gusting 6 32.8
2014-Jul-27 16:09 264 32.8
2014-Jul-27 15:59 209 32.8
2014-Jul-27 15:49 227 0 gusting 3 32.8
2014-Jul-27 15:39 265 32.8
2014-Jul-27 15:29 219 0 gusting 4 33.3
2014-Jul-27 15:19 179 0 gusting 8 33.9
2014-Jul-27 15:09 244 0 gusting 7 33.9
2014-Jul-27 14:59 232 1 gusting 6 35.0
2014-Jul-27 14:49 232 3 gusting 8 34.4
2014-Jul-27 14:39 201 33.9
2014-Jul-27 14:29 258 2 gusting 6 33.3
2014-Jul-27 14:19 198 0 gusting 6 32.8
2014-Jul-27 14:09 186 0 gusting 5 32.2
2014-Jul-27 13:59 211 31.7
2014-Jul-27 13:49 171 0 gusting 6 32.2
2014-Jul-27 13:39 213 1 gusting 5 32.8
2014-Jul-27 13:29 201 1 gusting 8 32.8
2014-Jul-27 13:19 176 0 gusting 6 32.8
2014-Jul-27 13:09 173 1 gusting 5 32.8
2014-Jul-27 12:59 225 32.2
2014-Jul-27 12:49 182 0 gusting 6 31.7
2014-Jul-27 12:39 148 1 gusting 6 32.2
2014-Jul-27 12:29 181 1 gusting 6 32.2
2014-Jul-27 12:19 194 0 gusting 6 31.7
2014-Jul-27 12:09 068 0 gusting 4 31.7
2014-Jul-27 11:59 346 0 gusting 5 31.7
2014-Jul-27 11:49 216 0 gusting 6 32.2
2014-Jul-27 11:39 236 0 gusting 8 31.7
2014-Jul-27 11:29 078 1 gusting 6 31.1
2014-Jul-27 11:19 182 0 gusting 3 31.1
2014-Jul-27 11:09 210 1 gusting 7 30.6
2014-Jul-27 10:59 195 2 gusting 6 30.0
2014-Jul-27 10:49 146 0 gusting 4 30.6
2014-Jul-27 10:39 083 0 gusting 5 30.0
2014-Jul-27 10:29 193 30.6
2014-Jul-27 10:19 188 29.4
2014-Jul-27 10:09 200 29.4
2014-Jul-27 09:59 146 28.9
2014-Jul-27 09:49 058 27.8
2014-Jul-27 09:39 110 27.2
2014-Jul-27 09:29 110 27.8
2014-Jul-27 09:19 107 27.2
2014-Jul-27 09:09 043 26.7
2014-Jul-27 08:59 140 26.7
2014-Jul-27 08:49 087 26.7
2014-Jul-27 08:39 063 25.6
2014-Jul-27 08:29 074 25.6
2014-Jul-27 08:19 072 0 gusting 3 25.0
2014-Jul-27 08:09 057 24.4
2014-Jul-27 07:59 055 0 gusting 3 24.4
2014-Jul-27 07:49 131 23.9
2014-Jul-27 07:39 071 0 gusting 2 23.3
2014-Jul-27 07:29 056 0 gusting 4 23.9
2014-Jul-27 07:19 360 23.9
2014-Jul-27 07:09 360 23.3
2014-Jul-27 06:59 360 22.8
2014-Jul-27 06:49 360 21.7
2014-Jul-27 06:39 360 21.1
2014-Jul-27 06:29 360 20.6
2014-Jul-27 06:19 360 19.4
2014-Jul-27 06:09 360 19.4
2014-Jul-27 05:59 360 18.9
2014-Jul-27 05:49 360 18.9
2014-Jul-27 05:39 360 18.9
2014-Jul-27 05:30 360 18.9
2014-Jul-27 05:19 360 18.9
2014-Jul-27 05:09 360 18.9
2014-Jul-27 04:59 360 18.9
2014-Jul-27 04:49 360 19.4
2014-Jul-27 04:39 360 19.4
2014-Jul-27 04:29 360 20.0
2014-Jul-27 04:20 360 20.6
2014-Jul-27 04:09 360 20.6
2014-Jul-27 03:59 360 20.6
2014-Jul-27 03:49 360 21.1
2014-Jul-27 03:39 036 20.6
2014-Jul-27 03:29 050 20.6
2014-Jul-27 03:19 050 20.6
2014-Jul-27 03:09 017 20.6
2014-Jul-27 02:59 065 20.0
2014-Jul-27 02:49 005 20.0
2014-Jul-27 02:39 005 20.0
2014-Jul-27 02:29 005 20.0
2014-Jul-27 02:19 005 20.6
2014-Jul-27 02:09 005 20.6